Regional Weather Roundup
Issued by NWS

Home | Current Version | Previous Version | Text Only | Print | Product List | Glossary On
Versions: 1 2 3 4 5 6 7 8 9 10 11 12 13 14 15 16 17 18 19 20 21 22 23 24 25 26 27 28 29 30 31 32 33 34 35 36 37 38 39 40 41 42 43 44 45 46 47 48 49 50
000
ASCA42 TJSJ 250811
RWRPR
PUERTO RICO/U.S. VIRGIN ISLANDS HOURLY WEATHER ROUNDUP
NATIONAL WEATHER SERVICE SAN JUAN PR
400 AM AST FRI APR 25 2014

PRZ001-004-250900-
PUERTO RICO

CITY           SKY/WX    TMP DP  RH WIND       PRES   REMARKS
SAN JUAN LMM   CLEAR     79  72  78 CALM      29.94F
CEIBA          PTCLDY    73  72  94 W3        29.97F
$$

PRZ006-007-250900-
U.S. VIRGIN ISLANDS

CITY           SKY/WX    TMP DP  RH WIND       PRES   REMARKS
CHARLOTTE AMA  PTCLDY    77  75  94 E5        29.95S
CHRISTIANSTED  PTCLDY    73  70  88 N5        29.96F
$$

HOURLY WEATHER ROUNDUP FOR THE NEWS MEDIA

CITY           SKY/WX    TMP DP  RH WIND       PRES   REMARKS
MIAMI          PTCLDY    73  67  81 NW3       29.95F
ORLANDO        CLEAR     71  64  78 NW5       29.94S
NEW YORK       CLEAR     45  18  34 NW7       30.02S
NEWARK         CLEAR     47  17  30 N8        30.01F
CHICAGO        LGT RAIN  45  40  82 NE12      29.62F
HARTFORD       CLEAR     42  26  53 NW6       29.92R
BOSTON         CLEAR     46  26  45 NW10      29.93R
DALLAS         PTCLDY    64  39  39 E8        29.94F
PHILADELPHIA   PTCLDY    47  15  27 N5        30.03S



USA.gov is the U.S. government's official web portal to all federal, state and local government web resources and services.